RYR2851 LICC-LFOB

Flight info

Callsign RYR2851
Flight time N/A
Altitude 38000
Route BUDIN DCT NERAR DCT TAGEL DCT LUNAK DCT KARDU DCT IDONA DCT TONDA DCT PIMOT DCT AOSTA DCT ORSUD DCT MOLUS DCT UNKIR DCT GIVRI DCT TINIL
Aircraft B738/M-SDE2E3FGHIRWXY/LB1

Departure

Time 2026-05-08 07:46
Airport Catania-Fontanarossa Airport (LICC)

Arrival

Time N/A
Airport Beauvais-Tillé airport (LFOB)
Time Latitude Longitude Altitude Speed Heading
2026-05-08 07:08 37.46927 15.06765 34 ft 0 kts 353°
2026-05-08 07:38 37.46919 15.06766 34 ft 2 kts 353°
2026-05-08 07:38 37.46904 15.06768 34 ft 2 kts 353°
2026-05-08 07:38 37.46889 15.06770 34 ft 2 kts 353°
2026-05-08 07:39 37.46874 15.06772 34 ft 2 kts 353°
2026-05-08 07:39 37.46861 15.06781 33 ft 2 kts 305°
2026-05-08 07:39 37.46856 15.06799 33 ft 2 kts 266°
2026-05-08 07:39 37.46859 15.06816 33 ft 1 kts 262°
2026-05-08 07:40 37.46859 15.06820 33 ft 0 kts 264°
2026-05-08 07:40 37.46859 15.06819 33 ft 0 kts 264°
2026-05-08 07:42 37.46855 15.06773 33 ft 9 kts 264°
2026-05-08 07:42 37.46844 15.06649 33 ft 18 kts 264°
2026-05-08 07:43 37.46831 15.06493 36 ft 16 kts 263°
2026-05-08 07:43 37.46819 15.06363 39 ft 13 kts 264°
2026-05-08 07:43 37.46811 15.06243 41 ft 15 kts 266°
2026-05-08 07:43 37.46798 15.06097 44 ft 18 kts 262°
2026-05-08 07:44 37.46783 15.05934 47 ft 17 kts 264°
2026-05-08 07:44 37.46772 15.05793 51 ft 14 kts 263°
2026-05-08 07:44 37.46762 15.05691 54 ft 10 kts 263°
2026-05-08 07:44 37.46756 15.05612 56 ft 8 kts 265°
2026-05-08 07:45 37.46746 15.05523 57 ft 9 kts 244°
2026-05-08 07:45 37.46703 15.05469 57 ft 8 kts 213°
2026-05-08 07:45 37.46646 15.05470 57 ft 9 kts 166°
2026-05-08 07:45 37.46592 15.05499 56 ft 8 kts 121°
2026-05-08 07:46 37.46594 15.05625 54 ft 36 kts 84°
2026-05-08 07:46 37.46652 15.06303 37 ft 116 kts 84°
2026-05-08 07:46 37.46757 15.07577 39 ft 177 kts 84°
2026-05-08 07:46 37.46883 15.09159 715 ft 181 kts 85°
2026-05-08 07:47 37.47046 15.10718 1513 ft 184 kts 80°
2026-05-08 07:47 37.47294 15.12318 2058 ft 195 kts 79°
2026-05-08 07:47 37.47563 15.14067 2522 ft 212 kts 79°
2026-05-08 07:47 37.47833 15.15954 3054 ft 226 kts 80°
2026-05-08 07:48 37.48114 15.17962 3545 ft 244 kts 80°
2026-05-08 07:48 37.48418 15.20139 4079 ft 261 kts 81°
2026-05-08 07:48 37.48738 15.22421 4755 ft 270 kts 81°
2026-05-08 07:48 37.49065 15.24753 5490 ft 277 kts 81°
2026-05-08 07:49 37.49468 15.27157 6206 ft 284 kts 74°
2026-05-08 07:49 37.50343 15.29397 6844 ft 292 kts 49°
2026-05-08 07:49 37.51878 15.31055 7378 ft 300 kts 31°
2026-05-08 07:49 37.53709 15.32406 7991 ft 307 kts 26°
2026-05-08 07:50 37.55577 15.33708 8654 ft 312 kts 27°
2026-05-08 07:50 37.57463 15.35071 9333 ft 317 kts 28°
2026-05-08 07:50 37.59385 15.36522 10013 ft 322 kts 29°
2026-05-08 07:50 37.61307 15.38011 10480 ft 334 kts 29°
2026-05-08 07:51 37.63325 15.39591 10813 ft 351 kts 29°
2026-05-08 07:51 37.65459 15.41268 11106 ft 369 kts 29°
2026-05-08 07:51 37.67652 15.42983 11550 ft 380 kts 27°
2026-05-08 07:51 37.70034 15.44504 12119 ft 382 kts 15°
2026-05-08 07:52 37.72578 15.45149 12740 ft 374 kts 354°
2026-05-08 07:52 37.75120 15.44693 13395 ft 362 kts 335°
2026-05-08 07:52 37.77452 15.43595 14040 ft 361 kts 330°
2026-05-08 07:52 37.79796 15.42379 14700 ft 363 kts 329°
2026-05-08 07:53 37.82123 15.41167 15343 ft 366 kts 329°
2026-05-08 07:53 37.84502 15.39943 15973 ft 369 kts 329°
2026-05-08 07:53 37.86875 15.38735 16586 ft 373 kts 330°
2026-05-08 07:53 37.89272 15.37525 17191 ft 376 kts 330°
2026-05-08 07:54 37.91736 15.36286 17800 ft 379 kts 330°
2026-05-08 07:54 37.94182 15.35059 18393 ft 381 kts 330°
2026-05-08 07:54 37.96649 15.33822 18981 ft 384 kts 330°
2026-05-08 07:54 37.99142 15.32571 19564 ft 386 kts 330°
2026-05-08 07:55 38.01654 15.31309 20134 ft 389 kts 330°
2026-05-08 07:55 38.04152 15.30052 20683 ft 392 kts 330°
2026-05-08 07:55 38.06712 15.28762 21226 ft 395 kts 330°
2026-05-08 07:55 38.09273 15.27471 21754 ft 398 kts 330°
2026-05-08 07:56 38.11840 15.26177 22279 ft 400 kts 330°
2026-05-08 07:56 38.14427 15.24870 22767 ft 403 kts 330°
2026-05-08 07:56 38.17060 15.23540 23253 ft 406 kts 330°
2026-05-08 07:56 38.19692 15.22209 23724 ft 408 kts 330°
2026-05-08 07:57 38.22317 15.20880 24186 ft 411 kts 330°
2026-05-08 07:57 38.24962 15.19541 24646 ft 413 kts 330°
2026-05-08 07:57 38.27661 15.18174 25107 ft 415 kts 330°
2026-05-08 07:57 38.30333 15.16819 25554 ft 418 kts 330°
2026-05-08 07:58 38.33055 15.15438 26000 ft 420 kts 330°
2026-05-08 07:58 38.35753 15.14067 26435 ft 422 kts 330°
2026-05-08 07:58 38.38472 15.12684 26864 ft 424 kts 330°
2026-05-08 07:58 38.41242 15.11275 27291 ft 427 kts 330°
2026-05-08 07:59 38.43961 15.09855 27694 ft 428 kts 329°
2026-05-08 07:59 38.46670 15.08240 28093 ft 426 kts 325°
2026-05-08 07:59 38.49242 15.06345 28492 ft 423 kts 320°
2026-05-08 07:59 38.51667 15.04248 28878 ft 423 kts 317°
2026-05-08 08:00 38.54028 15.02034 29276 ft 424 kts 316°
2026-05-08 08:00 38.56383 14.99744 29677 ft 425 kts 316°
2026-05-08 08:00 38.58727 14.97433 30076 ft 427 kts 315°
2026-05-08 08:00 38.61108 14.95078 30474 ft 429 kts 315°
2026-05-08 08:01 38.63450 14.92768 30989 ft 426 kts 316°
2026-05-08 08:01 38.65795 14.90462 31439 ft 425 kts 316°
2026-05-08 08:01 38.68115 14.88186 31867 ft 424 kts 316°
2026-05-08 08:01 38.70472 14.85877 32274 ft 423 kts 316°
2026-05-08 08:02 38.72782 14.83617 32670 ft 422 kts 316°
2026-05-08 08:02 38.75112 14.81337 33058 ft 422 kts 316°
2026-05-08 08:02 38.77436 14.79062 33436 ft 421 kts 315°
2026-05-08 08:02 38.79763 14.76783 33806 ft 421 kts 315°
2026-05-08 08:03 38.82100 14.74495 34157 ft 420 kts 315°
2026-05-08 08:03 38.84392 14.72247 34481 ft 420 kts 315°
2026-05-08 08:03 38.86717 14.69966 34804 ft 419 kts 315°
2026-05-08 08:03 38.89027 14.67697 35116 ft 419 kts 315°
2026-05-08 08:04 38.91310 14.65454 35399 ft 418 kts 315°
2026-05-08 08:04 38.93624 14.63177 35658 ft 418 kts 315°
2026-05-08 08:04 38.95938 14.60900 35930 ft 418 kts 315°
2026-05-08 08:04 38.98242 14.58629 36167 ft 418 kts 315°
2026-05-08 08:05 39.00531 14.56372 36388 ft 418 kts 315°
2026-05-08 08:05 39.02842 14.54090 36604 ft 418 kts 315°
2026-05-08 08:05 39.05127 14.51832 36809 ft 418 kts 315°
2026-05-08 08:05 39.07437 14.49548 37012 ft 418 kts 315°
2026-05-08 08:06 39.09736 14.47274 37201 ft 419 kts 315°
2026-05-08 08:06 39.12047 14.44985 37370 ft 419 kts 315°
2026-05-08 08:06 39.14369 14.42683 37536 ft 419 kts 315°
2026-05-08 08:06 39.16682 14.40390 37696 ft 419 kts 315°
2026-05-08 08:07 39.18993 14.38095 37846 ft 420 kts 315°
2026-05-08 08:07 39.23617 14.33498 37957 ft 422 kts 315°